When you browse on this site, cookies collect data to enhance your experience and personalize the content and advertising you see.
Visit our Privacy Policy to learn more. By continuing to use the site, you agree to this use of cookies and data.

Meteo pe oră la Dzieciolowo

Astăzi, 26 Septembrie, Sâmbătă

Timp Temperatura Precipitaţii Vânt Presiune Umiditate
00:00 +13°C° 0 mm 1 m/s 736 mmHg 96%
01:00 +12°C° 0 mm 1 m/s 737 mmHg 97%
02:00 +12°C° 0 mm 1 m/s 736 mmHg 96%
03:00 +13°C° 0 mm 2 m/s 736 mmHg 96%
04:00 +13°C° 0 mm 2 m/s 736 mmHg 96%
05:00 +12°C° 0.1 mm 3 m/s 736 mmHg 95%
06:00 +13°C° 0.1 mm 4 m/s 735 mmHg 95%
07:00 +13°C° 0 mm 4 m/s 735 mmHg 91%
08:00 +13°C° 0.9 mm 4 m/s 735 mmHg 92%
09:00 +14°C° 0.9 mm 4 m/s 735 mmHg 94%
10:00 +14°C° 0.9 mm 4 m/s 735 mmHg 95%
11:00 +15°C° 0.3 mm 5 m/s 734 mmHg 90%
12:00 +17°C° 0.3 mm 5 m/s 734 mmHg 85%
13:00 +20°C° 0 mm 5 m/s 733 mmHg 80%
14:00 +19°C° 0.4 mm 5 m/s 733 mmHg 82%
15:00 +19°C° 0.4 mm 6 m/s 733 mmHg 84%
16:00 +17°C° 0.4 mm 6 m/s 733 mmHg 86%
17:00 +17°C° 0.1 mm 5 m/s 734 mmHg 87%
18:00 +16°C° 0.1 mm 5 m/s 734 mmHg 88%
19:00 +17°C° 0.1 mm 4 m/s 735 mmHg 89%
20:00 +16°C° 0 mm 3 m/s 736 mmHg 90%
21:00 +14°C° 0 mm 3 m/s 736 mmHg 91%
22:00 +14°C° 0 mm 2 m/s 737 mmHg 91%
23:00 +14°C° 0 mm 2 m/s 737 mmHg 91%

Mâine, 27 Septembrie, Duminică

Timp Temperatura Precipitaţii Vânt Presiune Umiditate
00:00 +13°C° 0 mm 2 m/s 738 mmHg 90%
01:00 +13°C° 0 mm 2 m/s 738 mmHg 89%
02:00 +12°C° 0.6 mm 2 m/s 738 mmHg 90%
03:00 +12°C° 0.6 mm 2 m/s 738 mmHg 92%
04:00 +12°C° 0.6 mm 2 m/s 738 mmHg 93%
05:00 +11°C° 0.4 mm 3 m/s 739 mmHg 93%
06:00 +11°C° 0.4 mm 3 m/s 739 mmHg 94%
07:00 +10°C° 0.4 mm 3 m/s 739 mmHg 95%
08:00 +11°C° 0.4 mm 3 m/s 739 mmHg 93%
09:00 +13°C° 0.4 mm 3 m/s 739 mmHg 91%
10:00 +14°C° 0.4 mm 3 m/s 739 mmHg 89%
11:00 +15°C° 1 mm 2 m/s 739 mmHg 90%
12:00 +15°C° 1 mm 2 m/s 740 mmHg 91%
13:00 +15°C° 1 mm 2 m/s 740 mmHg 92%
14:00 +15°C° 0.3 mm 2 m/s 740 mmHg 91%
15:00 +14°C° 0.3 mm 2 m/s 740 mmHg 90%
16:00 +14°C° 0.3 mm 2 m/s 740 mmHg 90%
17:00 +14°C° 0.1 mm 2 m/s 741 mmHg 91%
18:00 +13°C° 0.1 mm 2 m/s 741 mmHg 92%
19:00 +13°C° 0.1 mm 2 m/s 741 mmHg 93%
20:00 +13°C° 0.1 mm 2 m/s 742 mmHg 94%
21:00 +12°C° 0.1 mm 2 m/s 742 mmHg 94%
22:00 +12°C° 0.1 mm 2 m/s 743 mmHg 95%
23:00 +11°C° 0.2 mm 3 m/s 743 mmHg 95%

Poimâine, 28 Septembrie, Luni

Timp Temperatura Precipitaţii Vânt Presiune Umiditate
00:00 +11°C° 0.2 mm 3 m/s 743 mmHg 95%
01:00 +10°C° 0.2 mm 3 m/s 743 mmHg 95%
02:00 +10°C° 0.2 mm 3 m/s 744 mmHg 95%
03:00 +10°C° 0.2 mm 3 m/s 744 mmHg 95%
04:00 +10°C° 0.2 mm 3 m/s 744 mmHg 94%
05:00 +10°C° 0.1 mm 3 m/s 744 mmHg 94%
06:00 +10°C° 0.1 mm 3 m/s 744 mmHg 93%
07:00 +10°C° 0.1 mm 4 m/s 745 mmHg 93%
08:00 +10°C° 0 mm 4 m/s 745 mmHg 90%
09:00 +11°C° 0 mm 4 m/s 746 mmHg 87%
10:00 +12°C° 0 mm 4 m/s 746 mmHg 85%
11:00 +12°C° 0 mm 4 m/s 746 mmHg 81%
12:00 +13°C° 0 mm 4 m/s 747 mmHg 78%
13:00 +14°C° 0 mm 3 m/s 747 mmHg 74%
14:00 +14°C° 0 mm 3 m/s 747 mmHg 72%
15:00 +16°C° 0 mm 3 m/s 747 mmHg 70%
16:00 +16°C° 0 mm 2 m/s 747 mmHg 68%
17:00 +15°C° 0 mm 2 m/s 747 mmHg 72%
18:00 +13°C° 0 mm 2 m/s 748 mmHg 76%
19:00 +12°C° 0 mm 2 m/s 748 mmHg 80%
20:00 +12°C° 0 mm 2 m/s 748 mmHg 80%
21:00 +10°C° 0 mm 2 m/s 748 mmHg 80%
22:00 +10°C° 0 mm 2 m/s 749 mmHg 80%
23:00 +11°C° 0 mm 1 m/s 749 mmHg 79%

29 Septembrie, Marţi

Timp Temperatura Precipitaţii Vânt Presiune Umiditate
00:00 +11°C° 0 mm 1 m/s 749 mmHg 78%
01:00 +11°C° 0 mm 1 m/s 749 mmHg 77%
02:00 +11°C° 0 mm 1 m/s 749 mmHg 75%
03:00 +12°C° 0 mm 1 m/s 749 mmHg 73%
04:00 +11°C° 0 mm 0 m/s 749 mmHg 71%
05:00 +11°C° 0 mm 0 m/s 749 mmHg 71%
06:00 +12°C° 0 mm 1 m/s 749 mmHg 71%
07:00 +13°C° 0 mm 1 m/s 749 mmHg 71%
08:00 +13°C° 0 mm 1 m/s 750 mmHg 70%
09:00 +14°C° 0 mm 1 m/s 750 mmHg 69%
10:00 +14°C° 0 mm 0 m/s 750 mmHg 67%
11:00 +14°C° 0 mm 0 m/s 750 mmHg 65%
12:00 +15°C° 0 mm 0 m/s 750 mmHg 63%
13:00 +16°C° 0 mm 0 m/s 750 mmHg 61%
14:00 +18°C° 0 mm 1 m/s 750 mmHg 62%
15:00 +16°C° 0 mm 1 m/s 750 mmHg 63%
16:00 +16°C° 0 mm 1 m/s 750 mmHg 65%
17:00 +15°C° 0 mm 1 m/s 750 mmHg 68%
18:00 +14°C° 0 mm 1 m/s 751 mmHg 72%
19:00 +13°C° 0 mm 1 m/s 751 mmHg 76%
20:00 +13°C° 0 mm 1 m/s 751 mmHg 78%
21:00 +12°C° 0 mm 1 m/s 751 mmHg 81%
22:00 +12°C° 0 mm 1 m/s 751 mmHg 83%
23:00 +12°C° 0 mm 1 m/s 751 mmHg 83%

30 Septembrie, Miercuri

Timp Temperatura Precipitaţii Vânt Presiune Umiditate
00:00 +11°C° 0 mm 1 m/s 751 mmHg 83%
01:00 +11°C° 0 mm 1 m/s 750 mmHg 83%
02:00 +11°C° 0 mm 1 m/s 750 mmHg 84%
03:00 +11°C° 0 mm 1 m/s 750 mmHg 84%
04:00 +11°C° 0 mm 1 m/s 750 mmHg 85%
05:00 +11°C° 0 mm 1 m/s 750 mmHg 84%
06:00 +11°C° 0 mm 1 m/s 750 mmHg 84%
07:00 +12°C° 0 mm 1 m/s 750 mmHg 84%
08:00 +13°C° 0 mm 1 m/s 750 mmHg 81%
09:00 +15°C° 0 mm 1 m/s 750 mmHg 77%
10:00 +16°C° 0 mm 1 m/s 750 mmHg 74%
11:00 +18°C° 0 mm 1 m/s 750 mmHg 72%
12:00 +19°C° 0 mm 1 m/s 750 mmHg 69%
13:00 +19°C° 0 mm 1 m/s 749 mmHg 67%
14:00 +18°C° 0 mm 2 m/s 749 mmHg 69%
15:00 +18°C° 0 mm 2 m/s 749 mmHg 71%
16:00 +18°C° 0 mm 2 m/s 748 mmHg 73%
17:00 +17°C° 0 mm 2 m/s 748 mmHg 79%
18:00 +15°C° 0 mm 2 m/s 748 mmHg 85%
19:00 +14°C° 0 mm 2 m/s 748 mmHg 91%
20:00 +14°C° 0 mm 2 m/s 748 mmHg 91%
21:00 +13°C° 0 mm 1 m/s 748 mmHg 91%
22:00 +13°C° 0 mm 1 m/s 748 mmHg 91%
23:00 +13°C° 0 mm 1 m/s 747 mmHg 92%

1 Octombrie, Joi

Timp Temperatura Precipitaţii Vânt Presiune Umiditate
00:00 +12°C° 0 mm 1 m/s 747 mmHg 92%
01:00 +12°C° 0 mm 1 m/s 747 mmHg 92%
02:00 +12°C° 0 mm 1 m/s 747 mmHg 93%
03:00 +12°C° 0 mm 1 m/s 746 mmHg 93%
04:00 +12°C° 0 mm 1 m/s 746 mmHg 94%
05:00 +12°C° 0 mm 1 m/s 746 mmHg 94%
06:00 +12°C° 0 mm 1 m/s 746 mmHg 94%
07:00 +12°C° 0 mm 1 m/s 745 mmHg 94%
08:00 +14°C° 0 mm 1 m/s 745 mmHg 89%
09:00 +15°C° 0 mm 1 m/s 745 mmHg 83%
10:00 +18°C° 0 mm 1 m/s 745 mmHg 77%
11:00 +18°C° 0 mm 1 m/s 745 mmHg 75%
12:00 +18°C° 0 mm 1 m/s 744 mmHg 72%
13:00 +19°C° 0 mm 1 m/s 744 mmHg 69%
14:00 +19°C° 0 mm 1 m/s 744 mmHg 70%
15:00 +19°C° 0 mm 1 m/s 743 mmHg 70%
16:00 +19°C° 0 mm 1 m/s 743 mmHg 71%
17:00 +18°C° 0 mm 1 m/s 743 mmHg 74%
18:00 +16°C° 0 mm 1 m/s 743 mmHg 77%
19:00 +15°C° 0 mm 2 m/s 743 mmHg 80%
20:00 +14°C° 0 mm 2 m/s 742 mmHg 80%
21:00 +14°C° 0 mm 2 m/s 742 mmHg 81%
22:00 +14°C° 0 mm 2 m/s 742 mmHg 81%
23:00 +13°C° 0 mm 2 m/s 741 mmHg 81%
Arată mai mult